EHI
0 0 0 0 0 0 0 0 0 0 0 0 0 0 0 0 0 0 0 0 0 0 0 0 0 0 0 0 0 0 0 0 0 0 0 0 0 0 0 0 0 0 0 0
0 0 0 0 0 0 0 0 0 0 0 0 0 0 0 0 0 0 0 0 0 0 0 0 0 0 0 0 0 0 0 0 0 0 0 0 0 0 0 0 0 0 0 0
0 0 0 0 0 0 0 0 0 0 0 0 0 0 0 0 0 0 0 0 0 0 0 0 0 0 0 0 0 0 0 0 0 0 0 0 0 0 0 0 0 0 0 0
0 0 0 0 0 0 0 0 0 0 0 0 0 0 0 0 0 0 0 0 0 0 0 0 0 0 0 0 0 0 0 0 0 0 0 0 0 0 0 0 0 0 0 0
0 0 0 0 0 0 0 0 0 0 0 0 0 0 0 0 0 0 0 0 0 0 0 0 0 0 0 0 0 0 0 0 0 0 0 0 0 0 0 0 0 0 0 0
0 0 0 0 0 0 0 0 0 0 0 0 0 0 0 0 0 0 0 0 0 0 0 0 0 0 0 0 0 0 0 0 0 0 0 0 0 0 0 0 0 0 0 0
0 0 0 0 0 0 0 0 0 0 0 0 0 0 0 0 0 0 0 0 0 0 0 0 0 0 0 0 0 0 0 0 0 0 0 0 0 0 0 0 0 0 0 0
0 0 0 0 0 0 0 0 0 0 0 0 0 0 0 0 0 0 0 0 0 0 0 0 0 0 0 0 0 0 0 0 0 0 0 0 0 0 0 0 0 0 0 0
0 0 0 0 0 0 0 0 0 0 0 0 0 0 0 0 0 0 0 0 0 0 0 0 0 0 0 0 0 0 0 0 0 0 0 0 0 0 0 0 0 0 0 0
0 0 0 0 0 0 0 0 0 0 0 0 0 0 0 0 0 0 0 0 0 0 0 0 0 0 0 0 0 0 0 0 0 0 0 0 0 0 0 0 0 0 0 0
0 0 0 0 0 0 0 0 0 0 0 0 0 0 0 0 0 0 0 0 0 0 0 0 0 0 0 0 0 0 0 0 0 0 0 0 0 0 0 0 0 0 0 0
0 0 0 0 0 0 0 0 0 0 0 0 0 0 0 0 0 0 0 0 0 0 0 0 0 0 0 0 0 0 0 0 0 0 0 0 0 0 0 0 0 0 0 0
0 0 0 0 0 0 0 0 0 0 0 0 0 0 0 0 0 0 0 0 0 0 0 0 0 0 0 0 0 0 0 0 0 0 0 0 0 0 0 0 0 0 0 0
0 0 0 0 0 0 0 0 0 0 0 0 0 0 0 0 0 0 0 0 0 0 0 0 0 0 0 0 0 0 0 0 0 0 0 0 0 0 0 0 0 0 0 0
0 0 0 0 0 0 0 0 0 0 0 0 0 0 0 0 0 0 0 0 0 0 0 0 0 0 0 0 0 0 0 0 0 0 0 0 0 0 0 0 0 0 0 0
0 0 0 0 0 0 0 0 0 0 0 0 0 0 0 0 0 0 0 0 0 0 0 0 0 0 0 0 0 0 0 0 0 0 0 0 0 0 0 0 0 0 0 0
0 0 0 0 0 0 0 0 0 0 0 0 0 0 0 0 0 0 0 0 0 0 0 0 0 0 0 0 0 0 0 0 0 0 0 0 0 0 0 0 0 0 0 0
0 0 0 0 0 0 0 0 0 0 0 0 0 0 0 0 0 0 0 0 0 0 0 0 0 0 0 0 0 0 0 0 0 0 0 0 0 0 0 0 0 0 0 0
0 0 0 0 0 0 0 0 0 0 0 0 0 0 0 0 0 0 0 0 0 0 0 0 0 0 0 0 0 0 0 0 0 0 0 0 0 0 0 0 0 0 0 0
0 0 0 0 0 0 0 0 0 0 0 0 0 0 0 0 0 0 0 0 0 0 0 0 0 0 0 0 0 0 0 0 0 0 0 0 0 0 0 0 0 0 0 0
0 0 0 0 0 0 0 0 0 0 0 0 0 0 0 0 0 0 0 0 0 0 0 0 0 0 0 0 0 0 0 0 0 0 0 0 0 0 0 0 0 0 0 0
0 0 0 0 0 0 0 0 0 0 0 0 0 0 0 0 0 0 0 0 0 0 0 0 0 0 0 0 0 0 0 0 0 0 0 0 0 0 0 0 0 0 0 0
0 0 0 0 0 0 0 0 0 0 0 0 0 0 0 0 0 0 0 0 0 0 0 0 0 0 0 0 0 0 0 0 0 0 0 0 0 0 0 0 0 0 0 0
0 0 0 0 0 0 0 0 0 0 0 0 0 0 0 0 0 0 0 0 0 0 0 0 0 0 0 0 0 0 0 0 0 0 0 0 0 0 0 0 0 0 0 0
0 0 0 0 0 0 0 0 0 0 0 0 0 0 0 0 0 0 0 0 0 0 0 0 0 0 0 0 0 0 0 0 0 0 0 0 0 0 0 0 0 0 0 0
0 0 0 0 0 0 0 0 0 0 0 0 0 0 0 0 0 0 0 0 0 0 0 0 0 0 0 0 0 0 0 0 0 0 0 0 0 0 0 0 0 0 0 0
0 0 0 0 0 0 0 0 0 0 0 0 0 0 0 0 0 0 0 0 0 0 0 0 0 0 0 0 0 0 0 0 0 0 0 0 0 0 0 0 0 0 0 0
Wind_Speed
3 1 3 6 7 10 12 9 8 7 9 11 8 6 5 4 4 4 5 5 5 5 4 4 3 2 2 3 3 4 5 6 7 7 7 8 8 8 8 8 8 7 7 7
5 3 5 8 10 11 11 11 11 12 11 6 4 4 4 4 4 5 5 5 5 5 4 4 3 2 2 2 3 3 4 5 6 6 7 7 8 8 8 8 8 8 8 8
5 3 5 9 9 12 9 9 8 8 5 4 5 4 4 3 3 5 4 4 4 4 4 4 3 2 2 2 2 3 3 4 5 6 6 7 7 7 7 7 8 8 8 9
3 5 7 2 3 3 7 7 8 9 8 6 6 6 5 4 4 4 3 4 4 4 4 3 3 2 2 1 2 3 3 4 4 5 6 6 7 7 7 7 7 7 8 8
4 5 4 2 4 5 5 2 2 5 5 3 3 5 3 1 2 3 2 2 3 3 3 4 3 3 3 2 2 2 3 4 4 4 5 6 6 6 6 6 6 6 6 7
5 5 3 4 5 2 4 3 3 2 3 2 3 3 3 3 0 1 1 2 3 4 4 4 4 4 4 3 3 2 2 3 3 4 4 5 5 5 5 5 5 5 6 6
7 6 3 3 3 4 5 3 3 2 2 2 3 4 5 2 1 0 2 2 3 4 4 4 4 5 5 4 3 3 3 3 3 3 3 4 4 4 4 4 5 5 5 5
6 7 3 5 5 4 4 4 3 3 3 3 4 4 3 2 1 1 2 3 3 4 4 4 4 6 6 5 4 3 3 4 3 3 3 3 3 3 3 4 4 4 4 4
5 0 5 2 1 3 5 5 4 4 3 3 3 2 2 2 1 1 2 2 3 4 4 4 5 6 6 5 4 4 5 5 4 4 3 3 3 3 3 3 3 3 4 4
5 4 3 1 0 2 4 5 5 4 3 2 2 2 2 1 1 0 1 2 3 4 4 4 4 6 7 5 5 6 6 6 5 5 4 4 3 3 3 3 3 3 3 3
6 4 5 4 1 2 2 2 1 1 1 2 1 2 2 2 2 1 0 1 2 3 4 4 4 5 5 5 6 7 7 7 6 5 5 4 4 3 4 3 3 4 4 3
4 5 5 4 3 2 1 2 3 2 3 4 3 3 3 3 3 2 2 1 1 3 4 4 4 4 4 4 6 8 8 7 5 5 4 5 5 5 6 7 4 6 7 7
2 3 2 3 2 1 2 2 3 4 4 4 5 4 4 4 4 3 3 3 3 3 4 4 4 4 4 4 6 8 8 7 6 6 5 6 5 6 5 7 10 10 10 9
5 5 5 4 3 2 2 3 4 5 6 6 5 5 5 4 5 5 5 5 4 4 4 4 5 5 6 5 6 7 9 8 8 7 6 7 6 6 6 6 5 5 9 11
8 5 4 5 5 4 3 4 5 6 6 6 6 6 6 6 6 6 6 6 5 5 5 6 6 7 7 6 7 7 7 6 6 7 7 7 7 7 7 8 7 6 6 7
9 8 8 8 7 6 5 5 5 6 6 6 6 6 6 6 6 6 7 6 6 6 7 7 8 9 9 8 8 7 6 7 8 7 8 8 8 8 8 8 8 8 7 6
13 11 11 10 8 7 6 5 5 5 6 6 6 6 6 6 6 7 7 7 6 7 8 9 10 10 9 8 8 7 7 6 7 8 8 8 8 9 9 9 8 8 8 7
9 9 9 10 9 8 7 6 6 6 6 5 5 6 7 7 8 8 8 7 7 7 9 10 11 11 9 9 8 7 7 7 6 7 7 7 8 9 9 9 10 10 9 8
11 11 11 10 8 8 7 7 6 6 5 5 5 6 7 7 7 7 7 8 9 9 11 12 13 11 10 10 11 7 7 8 7 7 7 7 8 9 9 9 10 10 9 9
13 12 12 10 9 8 7 6 6 5 5 5 5 6 6 7 7 7 7 7 8 8 10 12 12 10 11 11 11 7 8 8 8 8 7 7 8 8 8 9 10 10 10 10
13 13 12 10 9 8 6 6 5 5 5 5 5 6 6 6 6 6 6 6 8 10 11 11 9 10 11 12 11 8 8 8 8 8 8 8 8 8 9 9 9 9 9 9
12 11 11 10 9 7 6 5 5 5 5 5 5 4 5 5 6 5 6 5 7 10 9 8 9 12 15 13 8 8 9 9 8 8 8 8 8 9 9 9 9 9 9 9
11 10 10 9 8 7 6 5 4 4 4 3 3 4 4 4 4 4 5 6 7 11 9 8 12 16 17 10 8 8 9 9 9 9 9 9 8 9 9 10 9 9 9 9
10 9 8 7 7 6 6 5 4 3 2 2 1 2 2 2 3 3 4 6 8 10 8 9 13 16 14 8 8 8 9 9 9 9 9 9 9 9 9 9 9 9 9 10
9 9 8 7 6 5 4 4 4 3 2 1 1 1 1 2 3 4 5 7 9 9 8 9 12 14 10 8 9 9 9 9 9 10 9 9 9 9 9 9 9 9 9 9
8 7 6 6 4 3 3 3 3 2 2 1 1 1 2 2 3 4 4 6 8 8 8 7 8 9 8 9 9 10 9 9 9 9 10 10 10 10 9 10 12 9 9 9
7 6 5 5 5 4 4 4 3 3 2 2 2 2 3 3 3 4 5 6 6 7 7 7 7 8 8 8 9 9 9 9 9 9 9 9 9 9 10 12 10 9 9 9
Wind_Direction
267 203 220 230 210 204 223 246 268 285 292 303 317 315 302 279 249 237 233 233 236 238 244 246 263 288 314 323 331 337 345 351 356 354 355 354 356 357 359 359 357 356 353 355
218 208 230 245 237 223 231 246 256 274 286 299 317 295 281 261 242 242 239 234 235 235 236 240 248 265 279 297 325 333 345 355 355 349 356 356 356 358 1 1 1 2 2 3
234 183 238 248 234 217 218 223 240 261 288 324 305 300 294 286 254 250 246 235 229 233 232 236 237 250 259 294 317 322 344 351 346 349 355 354 354 360 1 1 4 4 7 6
242 213 238 80 91 205 225 241 237 259 284 296 300 304 288 275 267 254 233 225 217 222 217 224 221 221 245 266 290 317 336 341 347 346 350 353 355 358 358 1 4 4 8 6
235 240 256 190 177 192 213 213 212 249 280 301 309 268 206 164 251 262 242 218 203 207 206 210 211 215 233 248 263 294 321 330 340 342 344 348 353 353 353 356 0 1 8 5
225 245 234 115 110 170 235 188 105 253 305 311 271 283 55 57 10 240 212 193 189 195 200 205 205 213 234 255 263 280 302 313 328 332 335 340 347 345 346 346 351 354 7 8
232 244 252 89 128 189 222 85 55 327 314 273 273 342 11 2 328 239 190 184 189 198 206 212 208 215 235 250 263 277 278 287 295 304 316 330 336 335 335 341 344 354 4 11
211 224 195 111 172 211 20 24 348 322 310 285 290 319 329 325 312 197 180 180 195 207 211 212 214 225 239 251 258 252 254 264 273 286 296 303 315 322 326 328 331 347 355 8
220 192 68 104 256 347 325 303 314 314 319 291 280 299 323 320 312 184 196 191 202 221 225 218 217 232 247 243 240 239 241 247 258 263 266 276 290 297 304 310 322 339 346 354
226 217 176 151 259 320 305 290 299 300 304 289 286 321 334 344 1 62 212 219 220 230 238 234 227 232 247 254 240 241 244 250 250 254 256 255 262 276 286 297 305 317 329 338
225 183 175 175 102 359 339 333 343 19 24 2 358 12 7 9 16 3 338 259 247 250 259 263 253 247 248 247 247 248 250 250 250 248 255 261 253 259 270 273 295 297 312 320
212 167 186 147 101 12 18 39 39 65 70 56 39 29 25 28 26 15 7 348 290 280 281 284 282 276 268 253 250 255 258 257 254 249 242 246 252 240 219 240 241 243 261 282
109 118 116 121 111 73 80 64 61 65 62 59 49 39 36 37 34 27 21 9 340 321 311 309 308 302 302 284 262 259 261 261 256 252 247 243 245 254 254 223 221 233 238 244
160 157 162 158 133 109 104 97 90 80 69 59 50 46 43 42 40 31 17 3 349 342 339 332 324 321 320 306 282 269 267 262 258 252 249 249 248 247 251 261 252 235 218 221
179 189 156 137 134 127 124 123 106 84 69 62 53 46 41 37 35 26 15 7 10 12 3 352 343 337 333 319 298 283 274 268 261 260 252 249 248 247 247 249 253 257 251 209
157 151 149 147 138 129 123 113 98 81 67 58 51 44 40 39 37 31 24 16 15 14 5 356 347 340 336 326 312 296 284 277 271 266 259 251 245 245 245 245 247 250 249 247
158 162 162 156 143 130 113 98 88 80 71 60 50 43 44 45 42 34 25 20 19 17 9 0 350 343 340 334 321 305 297 289 267 265 262 258 253 250 249 248 248 248 247 241
169 155 153 147 139 131 119 106 92 81 69 60 55 53 48 42 36 28 22 21 24 25 15 3 352 341 345 344 329 313 305 300 292 281 274 266 263 259 256 253 252 251 251 233
143 138 135 132 130 125 117 107 96 84 73 65 62 57 50 41 31 24 23 26 20 13 5 358 347 348 351 351 339 319 314 310 303 295 288 281 270 264 259 256 255 253 250 247
137 134 132 129 127 121 114 107 100 89 75 67 65 61 52 40 28 22 24 33 23 0 347 348 346 353 349 348 341 329 325 319 313 307 300 294 287 280 273 266 262 259 254 249
141 139 137 132 126 118 113 110 104 94 82 69 61 55 47 38 27 21 16 17 11 356 344 344 350 353 349 342 335 336 333 328 323 317 311 305 298 293 287 281 274 267 263 258
144 142 140 136 133 126 119 112 106 99 90 79 67 54 42 31 24 24 29 11 356 352 345 350 353 351 343 337 340 342 337 334 330 325 320 315 309 304 299 296 289 282 275 269
146 146 145 145 141 133 129 124 116 107 97 81 62 44 34 22 9 2 3 1 350 347 342 350 347 343 339 337 342 341 340 339 336 331 327 321 317 312 309 304 300 295 288 281
149 150 149 147 147 150 149 143 136 131 126 105 54 16 359 353 356 355 341 338 339 334 336 342 339 340 336 339 343 342 341 340 337 333 329 325 322 318 315 312 308 304 298 292
156 157 158 163 166 164 160 159 165 171 186 201 245 307 315 323 323 328 329 333 335 329 330 336 339 336 334 340 342 340 338 338 335 330 328 328 326 321 317 315 313 308 304 299
163 166 170 177 174 172 177 184 193 198 211 229 262 295 306 308 306 306 311 319 324 324 324 327 331 331 337 339 336 335 334 332 332 332 330 328 327 326 321 318 313 309 306 303
170 171 174 181 186 193 196 200 208 216 224 239 267 292 301 305 306 310 312 315 320 324 326 327 328 330 331 331 330 331 331 331 331 329 328 328 326 325 324 321 317 313 310 306